Regional Weather Roundup
Issued by NWS Wakefield, VA

Home | Current Version | Previous Version | Graphics & Text | Print | Product List | Glossary On
Versions: 1 2 3 4 5 6 7 8 9 10 11 12 13 14 15 16 17 18 19 20 21 22 23 24 25 26 27 28 29 30 31 32 33 34 35 36 37 38 39 40 41 42 43 44 45 46 47 48 49 50
000
ASUS41 KAKQ 012314
RWRAKQ

REGIONAL WEATHER ROUNDUP
NATIONAL WEATHER SERVICE WAKEFIELD VA
700 PM EDT TUE SEP 01 2015

Note: "fair" indicates few or no clouds below 12,000 feet with no
significant weather and/or obstructions to visibility. * = Denotes
station may not report precipitation (e.g., rain,snow,etc.),
thunder or fog.

VAZ042-051-052>054-056-020000-
NORTHERN VIRGINIA

CITY           SKY/WX    TMP DP  RH WIND       PRES   REMARKS
WASH NATIONAL  MOCLDY    87  71  58 S8        30.01R
DULLES         MOCLDY    88  65  46 NW6       30.02R
FORT BELVOIR   CLEAR     85  71  63 SE2       30.01R
QUANTICO       MOCLDY    86  73  65 SW6       30.02R
FREDERICKSBRG* CLEAR     90  70  52 SE5       30.01R HX  95
STAFFORD*      CLEAR     84  72  65 CALM      30.06R
WARRENTON      CLEAR     85  72  65 CALM      30.03R
CULPEPER*      CLEAR     83  74  73 CALM      30.04R
MANASSAS*      CLEAR     86  70  58 CALM      30.02R
LEESBURG*      PTCLDY    88  72  58 CALM      30.03S
WINCHESTER     PTCLDY    88  64  45 SE6       30.04R
FRONT ROYAL*   FAIR      84  68  58 S3        30.03S
LURAY*         MOCLDY    84  64  51 S3        30.06R
$$

VAZ048-049-060>072-079>083-020000-
CENTRAL AND SOUTH CENTRAL VIRGINIA

CITY           SKY/WX    TMP DP  RH WIND       PRES   REMARKS
RICHMOND       MOCLDY    87  68  52 S5        30.03R
CHESTERFIELD*  FAIR      88  63  42 S6        30.04S
PETERSBURG*    CLEAR     85  73  67 S3        30.04R
HANOVER        CLEAR     83  73  72 CALM      30.04R
TAPPAHANNOCK*  PTCLDY    84  72  65 CALM      30.03S
QUINTON*       FAIR      84  73  68 CALM      30.02S
CHARLOTTSVILLE PTCLDY    85  68  56 CALM      30.05S
GORDONSVILLE*  FAIR      83  74  74 CALM      30.03S
ORANGE*        CLEAR     86  70  58 CALM      30.05S
LOUISA*        PTCLDY    88  70  55 CALM      30.03S
BUMPASS*       FAIR      83  71  66 CALM      30.04R
FARMVILLE*     MOCLDY    87  65  47 CALM      30.03S
CREWE*         FAIR     N/A N/A N/A CALM      30.04S
FORT PICKETT*  FAIR      84  70  61 SE3       30.05S
CHASE CITY*    FAIR      88  72  58 SE3       30.05S
CLARKSVILLE*   FAIR      82  72  69 CALM      30.04S
SOUTH HILL*    CLEAR     81  73  75 CALM      30.10S
LAWRENCEVILLE* FAIR      81  73  78 CALM      30.04F
EMPORIA*       CLEAR     81  73  78 CALM      30.05S
$$

VAZ088>098-020000-
SOUTHEAST VIRGINIA

CITY           SKY/WX    TMP DP  RH WIND       PRES   REMARKS
NORFOLK        CLEAR     82  69  64 NE5       30.03S
VIRGINIA BEACH PTCLDY    83  72  69 E7        30.02S
NORFOLK NAVAL  PTCLDY    85  76  74 E5        30.04S
WEST POINT*    CLEAR     87  69  55 SE3       30.04S
SALUDA*        FAIR      83  72  69 S7        30.02S
NEWPORT NEWS   CLEAR     85  65  51 E5        30.03S
LANGLEY AFB    CLEAR     84  67  56 S2        30.02S
FORT EUSTIS    CLEAR     84  66  53 S2        30.01F
WILLIAMSBURG*  CLEAR     90  70  51 CALM      30.04S HX  95
HR EXEC AP*      N/A     81  70  69 CALM      30.04S
FRANKLIN*      CLEAR     83  73  70 CALM      30.03S
WAKEFIELD      CLEAR     84  71  65 CALM      30.03S
$$

VAZ020-022-025-037-045-020000-
WEST CENTRAL AND SOUTHWEST VIRGINIA

CITY           SKY/WX    TMP DP  RH WIND       PRES   REMARKS
STAUNTON*      MOCLDY    85  65  51 SW3       30.10S
WAYNESBORO*    FAIR      82  69  64 CALM      30.10F
HOT SPRINGS VA CLOUDY    73  58  60 NW5       30.25R
LYNCHBURG      MOCLDY    85  69  58 W3        30.08S
DANVILLE       PTCLDY    84  71  65 CALM      30.05S
SOUTH BOSTON*  FAIR      85  68  55 CALM      30.04S
MARTINSVILLE   CLOUDY    84  70  63 CALM      30.10R
ROANOKE        MOCLDY    83  64  52 N9        30.11S
BLACKSBURG     PTCLDY    79  69  70 CALM      30.18S
DUBLIN*        CLOUDY    79  67  66 CALM      30.17S
MARION*        MOCLDY    79  66  64 CALM      30.21S
HILLSVILLE*    MOCLDY    77  65  66 NE3       30.18S
RICHLANDS*     FAIR      78  26  14 CALM      30.19S
WISE*            N/A    N/A N/A N/A N3        30.21F
ABINGDON*      MOSUNNY   83  62  49 CALM      30.16S
$$

MDZ021>025-VAZ099-100-020000-
SOUTHERN MARYLAND AND THE DELMARVA PENINSULA

CITY           SKY/WX    TMP DP  RH WIND       PRES   REMARKS
PATUXENT RIVER MOCLDY    83  69  62 S5        30.01S
BAY BRIDGE APT   N/A     82  72  69 CALM      30.01S
LEONARDTOWN    NOT AVBL
DOVER          PTCLDY    81  75  82 SE3       29.99S
GEORGETOWN     MOCLDY    79  72  79 SW5       30.02S
EASTON         PTCLDY    86  73  66 CALM      30.05R
CAMBRIDGE      PTCLDY    82  70  65 CALM      30.01S
SALISBURY      CLOUDY    77  74  90 CALM      30.02S
OCEAN CITY     MOCLDY    80  69  69 SW3       30.02S
WALLOPS ISLAND PTCLDY    81  70  69 S6        30.03S
ACCOMACK*      CLEAR     79  75  89 CALM      30.02F
$$

NCZ012>017-030>032-020000-
NORTH CENTRAL AND EASTERN NORTH CAROLINA

CITY           SKY/WX    TMP DP  RH WIND       PRES   REMARKS
ROANOKE RAPIDS FAIR      81  72  74 CALM      30.04S
RALEIGH        MOCLDY    87  68  52 E3        30.05S
ELIZABETH CITY CLEAR     81  73  76 S5        30.03S
AHOSKIE*       CLEAR     78  71  78 CALM      30.05R
EDENTON*       CLEAR     82  69  64 CALM      30.04S
CURRITUCK*     CLEAR     81  71  71 CALM      30.04S
KILL DEVIL HLS CLEAR     83  70  66 CALM      30.03S
MANTEO         CLEAR     79  72  79 CALM      30.04S
CAPE HATTERAS  CLEAR     81  72  74 CALM      30.04S
TARBORO*       FAIR      86  69  56 CALM      30.05S
GOLDSBORO      CLEAR     86  72  63 SE5       30.03S
WASHINGTON     CLEAR     82  71  67 CALM      30.04S
GREENVILLE     CLEAR     84  72  65 CALM      30.06S
NEW BERN       MOCLDY    83  72  69 CALM      30.05S
WILMINGTON     CLEAR     81  74  79 S7        30.05S
$$

VAZ048-020000-
ELSEWHERE

CITY           SKY/WX    TMP DP  RH WIND       PRES   REMARKS
HARRISBURG PA  PTCLDY    86  62  44 N5        30.01S
BALTIMORE      MOCLDY    85  70  60 S6        30.01R
ANNAPOLIS      PTCLDY    85  71  63 S3        30.00S
ANDREWS AFB    PTCLDY    87  68  53 S6        30.01S
PHILADELPHIA   PTCLDY    86  70  58 SE9       30.00R
HENDERSON NC   CLEAR     85  65  49 CALM      30.05S
GREENSBORO     PTCLDY    88  60  38 N3        30.07R
ROCKY MOUNT    CLEAR     88  69  53 E3        30.04S
$$

VAZ100-020000-
MARINE

STATION/POSITION TIME  TEMP    WIND        PRES    WAVE   SWELL
                       AIR SEA DIR/SP/G            HT/PER HT/PER
                 (UTC) (F)     (DEG/KT/KT) (MB)    (FT/S) (FT/S)
BRANDYWINE LGT   2200   77 77  180/ 14/ 15 1016.4F
CAPE MAY NJ      2200   78 81  160/  7/ 10 1016.1S
LEWES DE         2200   83 77  170/  5/  8 1016.1R
15NM E FENWICK I 2250   79 80  210/ 12/ 14 1016.5F   2/ 9   2/ 9
OCEAN-CITY-INLET 2200   79 79  210/ 10/ 12 1015.8R
THOMAS POINT MD  2200   83 80  190/  6/  6 1016.5S
GOOSES REEF MD   2300   84 83  180/  8/  8 1017.1F
COVE POINT MD    2200   82     200/  5/  6 1017.0R
SOLOMONS ISLAND  2200      81                N/A
BISHOPS HEAD MD  2200   82 82  190/  7/  8 1015.7R
PINEY POINT MD   2205          170/  5/  6   N/A
POTOMAC MD       2200   83 81  150/  8/  8 1015.4R
CAMBRIDGE MD     2200   86 81  320/  4/  5 1015.3S
LEWISETTA VA     2200   83 81  120/  6/  6 1016.0R
RAPPAHANNOCK LGT 2200          210/  8/  8 1017.4R
STINGRAY PT      2300   82 80  180/  6/  8 1017.1F   0
YORK RVR RNG VA  2200   81     150/  7/  7 1016.3F
YORKTOWN VA      2200   83 81   70/  5/  5 1016.6S
JAMESTOWN VA     2300   85 83  110/  2/  2   N/A
DOMINION TERM VA 2200   83      70/  4/  6 1016.9S
KIPTOPEKE VA     2200      79  190/  5/  5   N/A
CHES BAY BRIDGE  2200   79 80   70/  5/  5 1016.5F
CAPE HENRY VA    2200   79     110/  5/  7   N/A
CHESAPEAKE LGHT  2200   78      CALM  /  1 1017.8R
WILLOUBY STN VA  2200   81      CALM  /  1 1018.0S
CAPE HENRY BUOY  2228      83                N/A     2/10
1ST LANDING BUOY 2300      79              1016.6F   1/ 5
CAPE CHARLES BUO 2226                        N/A     2/ 7   2/ 7
OFFSHORE WE BUOY 2211      81                N/A     2/ 9   2/ 9
64NM E OF VA BCH 2250   79 80  360/  4/  6 1016.8R   2/ 9   2/ 9
DUCK PIER NC     2200   83 81   70/  3/  4 1016.3S
44100 DUCK FRF   2224      80                N/A     2/10
44056 DUCK FRF   2211      82                N/A     2/10
OREGON INLET NC  2200   80 81   50/  3/  5 1017.1R
HATTERAS NC      2200   80 82   10/  6/  9 1017.0S
DIAMOND SHLS NC  2250   80 84   20/  6/  8 1017.4R   2/ 6   2/ 6
CAPE LOOKOUT NC  2300   80     230/  7/  9 1017.0S
$$


USA.gov is the U.S. government's official web portal to all federal, state and local government web resources and services.